�N����,����,�~����,�C��,���x,�C��,����,���ϕ���,�ő�u�ԕ���,�ő厞����,���˗�,�I�_���x,�n�����x
"19/06/01","01:00",0.0,17.8,88.8,1004.5,327.1,1.7,3.9,339.2,0.00,16.0,19.6
"19/06/01","02:00",0.0,18.0,88.9,1004.3,320.7,1.6,3.9,332.7,0.00,16.2,19.4
"19/06/01","03:00",0.0,17.1,89.7,1004.8,326.4,2.2,4.4,329.8,0.00,15.4,19.2
"19/06/01","04:00",0.0,17.0,90.7,1004.8,332.0,1.5,3.9,317.1,0.00,15.5,19.0
"19/06/01","05:00",0.0,16.2,91.0,1005.2,334.9,1.3,3.1,332.8,0.00,14.8,18.8
"19/06/01","06:00",0.0,16.2,91.4,1005.7,329.7,2.6,4.3,335.4,0.00,14.8,18.7
"19/06/01","07:00",0.0,17.7,87.7,1005.7,338.2,1.5,4.8,341.5,0.27,15.7,18.5
"19/06/01","08:00",0.0,20.2,70.4,1005.2,17.9,0.7,3.2,333.6,0.94,14.7,19.2
"19/06/01","09:00",0.0,22.1,55.6,1004.1,8.2,0.8,3.4,344.6,1.72,12.9,19.8
"19/06/01","10:00",0.0,23.3,58.4,1003.4,164.8,1.5,3.4,206.1,2.55,14.7,21.1
"19/06/01","11:00",0.0,23.8,57.2,1003.4,218.3,1.3,4.5,200.0,2.91,14.9,22.1
"19/06/01","12:00",0.0,25.6,54.6,1002.9,219.7,1.2,4.0,200.5,2.94,15.8,23.4
"19/06/01","13:00",0.0,26.2,54.4,1002.2,161.1,1.8,4.3,228.8,3.15,16.3,24.5
"19/06/01","14:00",0.0,25.2,52.2,1002.2,178.0,2.0,6.3,227.3,2.49,14.8,24.4
"19/06/01","15:00",0.0,26.3,47.9,1001.2,191.6,2.3,5.1,214.1,1.82,14.4,24.1
"19/06/01","16:00",0.0,26.7,47.2,1001.5,212.1,1.6,9.1,222.5,1.93,14.6,24.3
"19/06/01","17:00",0.0,28.1,43.2,1001.0,293.7,0.8,3.9,356.0,1.59,14.5,24.6
"19/06/01","18:00",0.0,27.0,41.4,1001.2,269.8,0.8,3.5,246.6,0.44,12.8,24.2
"19/06/01","19:00",0.0,24.1,49.4,1001.9,310.3,0.8,2.9,338.8,0.09,12.9,23.5
"19/06/01","20:00",0.0,22.2,49.5,1003.6,324.2,1.6,3.4,341.6,0.00,11.2,22.5
"19/06/01","21:00",0.0,19.8,63.3,1004.5,285.1,0.8,2.4,339.3,0.00,12.7,21.9
"19/06/01","22:00",0.0,19.2,65.0,1004.8,302.5,1.1,2.9,321.7,0.00,12.5,21.2
"19/06/01","23:00",0.0,19.0,67.6,1005.2,312.5,1.1,2.7,325.7,0.00,12.9,20.7
"19/06/01","24:00",0.0,18.7,73.2,1005.2,333.7,1.7,3.3,340.9,0.00,13.8,20.4
"19/06/02","01:00",0.0,17.8,75.9,1004.8,314.5,1.8,3.5,341.2,0.00,13.5,20.0
"19/06/02","02:00",0.0,16.9,78.2,1004.8,287.3,0.8,2.6,315.6,0.00,13.1,19.5
"19/06/02","03:00",0.0,15.9,83.0,1005.0,302.7,1.2,2.5,328.8,0.00,13.1,19.3
"19/06/02","04:00",0.0,15.2,84.1,1005.0,298.3,1.1,2.4,319.0,0.00,12.6,19.1
"19/06/02","05:00",0.0,15.2,85.5,1005.2,292.9,1.1,2.5,313.1,0.00,12.8,18.5
"19/06/02","06:00",0.0,15.6,85.8,1005.5,304.0,1.1,2.6,331.3,0.00,13.3,18.6
"19/06/02","07:00",0.0,17.2,85.2,1005.0,292.8,0.7,1.7,325.5,0.16,14.7,18.7
"19/06/02","08:00",0.0,19.0,76.7,1004.8,320.7,1.1,2.1,329.4,0.46,14.9,19.1
"19/06/02","09:00",0.0,20.4,72.0,1004.5,296.5,0.6,1.7,314.5,0.66,15.2,19.4
"19/06/02","10:00",0.0,21.6,64.8,1003.8,305.6,0.5,1.9,342.7,1.04,14.7,20.2
"19/06/02","11:00",0.0,22.6,63.3,1003.1,283.9,0.8,1.8,339.7,0.82,15.3,20.6
"19/06/02","12:00",0.0,23.7,63.7,1003.1,138.8,0.6,2.8,338.2,0.97,16.5,20.8
"19/06/02","13:00",0.0,23.2,66.6,1003.4,98.7,0.7,2.5,41.6,0.71,16.7,20.9
"19/06/02","14:00",0.0,23.2,67.9,1002.4,126.2,0.8,3.1,125.8,0.58,17.0,21.3
"19/06/02","15:00",0.0,23.2,66.0,1002.2,82.4,1.0,3.7,126.4,0.55,16.5,21.0
"19/06/02","16:00",0.0,22.9,66.6,1002.4,166.1,1.2,4.3,143.9,0.21,16.4,21.1
"19/06/02","17:00",0.0,22.7,72.1,1001.9,243.6,1.2,3.4,206.5,0.24,17.5,21.0
"19/06/02","18:00",0.0,22.4,73.8,1002.9,294.5,0.7,2.4,231.1,0.28,17.5,21.1
"19/06/02","19:00",0.0,21.2,79.4,1002.9,330.0,1.0,1.9,332.9,0.03,17.5,20.9
"19/06/02","20:00",0.0,20.1,82.1,1003.1,293.8,0.6,1.8,324.2,0.00,17.0,20.4
"19/06/02","21:00",0.0,21.2,72.6,1003.6,170.2,1.1,3.5,139.1,0.00,16.1,20.5
"19/06/02","22:00",0.0,21.0,67.5,1003.8,178.3,1.1,3.3,185.2,0.00,14.8,20.1
"19/06/02","23:00",0.0,19.9,73.9,1003.6,339.0,1.1,4.3,146.9,0.00,15.2,20.0
"19/06/02","24:00",0.0,18.8,80.4,1003.6,320.6,0.7,1.8,334.2,0.00,15.4,19.7
"19/06/03","01:00",0.0,18.5,80.9,1003.4,287.9,0.3,2.0,337.5,0.00,15.2,19.5
"19/06/03","02:00",0.0,18.2,80.5,1003.4,288.4,0.3,1.4,325.1,0.00,14.8,19.4
"19/06/03","03:00",0.0,18.0,82.8,1002.9,326.4,1.0,2.1,324.5,0.00,15.1,19.3
"19/06/03","04:00",0.0,16.9,86.4,1003.1,311.5,1.2,1.7,311.4,0.00,14.7,18.9
"19/06/03","05:00",0.0,17.6,86.1,1003.1,292.2,0.8,2.1,337.0,0.00,15.3,18.9
"19/06/03","06:00",0.0,18.3,86.3,1003.8,296.9,0.6,1.6,323.0,0.00,16.0,18.9
"19/06/03","07:00",0.0,20.1,82.4,1003.8,310.9,1.0,2.1,319.0,0.18,17.0,19.1
"19/06/03","08:00",0.0,22.6,73.2,1003.8,338.2,1.1,2.7,343.8,0.69,17.6,19.8
"19/06/03","09:00",0.0,24.3,66.2,1003.1,59.5,0.7,2.4,49.9,1.85,17.6,20.7
"19/06/03","10:00",0.0,25.4,63.7,1002.9,104.6,1.1,3.9,177.9,2.66,18.1,21.7
"19/06/03","11:00",0.0,26.5,60.4,1003.1,169.8,1.1,3.9,188.3,3.12,18.3,23.4
"19/06/03","12:00",0.0,27.3,57.4,1003.4,160.6,1.2,3.4,359.6,3.17,18.2,24.7
"19/06/03","13:00",0.0,28.4,56.5,1002.9,140.2,0.8,3.4,200.8,3.24,19.0,25.7
"19/06/03","14:00",0.0,29.1,48.1,1002.6,218.1,2.0,4.0,197.8,3.55,17.0,25.9
"19/06/03","15:00",0.0,29.4,45.6,1001.9,192.9,1.5,3.6,160.4,2.78,16.5,26.4
"19/06/03","16:00",0.0,29.6,45.0,1001.5,1.2,0.8,3.4,211.0,2.10,16.5,26.3
"19/06/03","17:00",0.0,29.7,47.9,1002.2,220.9,1.2,3.3,229.9,1.50,17.5,26.1
"19/06/03","18:00",0.0,29.5,47.4,1001.2,78.8,0.7,3.6,218.0,0.69,17.2,25.8
"19/06/03","19:00",0.0,28.1,52.2,1001.0,49.5,0.8,3.1,59.5,0.10,17.4,25.3
"19/06/03","20:00",0.0,26.7,56.1,1002.4,5.2,1.3,2.9,347.0,0.00,17.3,24.4
"19/06/03","21:00",0.0,25.2,62.8,1003.1,262.1,1.0,3.2,328.1,0.00,17.6,23.9
"19/06/03","22:00",0.0,23.7,68.4,1004.5,329.7,1.7,4.1,334.1,0.00,17.6,23.1
"19/06/03","23:00",0.0,21.5,76.1,1005.0,294.4,1.1,4.0,337.5,0.00,17.2,22.7
"19/06/03","24:00",0.0,20.6,80.0,1005.5,297.1,1.5,3.4,327.3,0.00,17.1,21.9
"19/06/04","01:00",0.0,19.3,84.8,1005.2,288.6,0.8,2.5,324.6,0.00,16.7,21.4
"19/06/04","02:00",0.0,18.8,86.9,1005.7,285.9,1.0,2.4,334.4,0.00,16.6,21.1
"19/06/04","03:00",0.0,18.6,88.5,1006.4,311.5,1.2,1.9,308.6,0.00,16.7,20.6
"19/06/04","04:00",0.0,18.3,89.9,1006.2,311.7,1.1,2.4,331.4,0.00,16.7,20.4
"19/06/04","05:00",0.0,18.0,91.4,1006.2,280.0,1.0,1.8,327.2,0.00,16.6,20.1
"19/06/04","06:00",0.0,18.5,92.6,1006.4,314.7,1.1,1.9,334.6,0.01,17.3,20.1
"19/06/04","07:00",0.0,20.9,89.6,1007.1,307.9,0.6,1.8,321.4,0.20,19.2,20.4
"19/06/04","08:00",0.0,21.9,84.3,1007.1,303.0,0.6,1.6,234.7,0.30,19.2,20.6
"19/06/04","09:00",0.0,23.4,78.6,1007.1,327.7,1.0,2.4,337.0,0.94,19.5,21.5
"19/06/04","10:00",0.0,24.9,74.9,1006.0,188.5,0.5,2.7,223.2,1.47,20.2,22.1
"19/06/04","11:00",0.0,26.5,67.4,1006.0,146.1,0.6,2.7,146.6,2.04,20.0,23.0
"19/06/04","12:00",0.0,27.2,62.8,1005.5,187.6,1.2,2.9,220.3,2.64,19.5,24.6
"19/06/04","13:00",0.0,28.8,56.6,1005.2,109.1,1.3,4.9,210.5,3.07,19.4,25.6
"19/06/04","14:00",0.0,29.5,50.0,1005.0,126.4,1.0,4.7,183.6,3.46,18.0,25.9
"19/06/04","15:00",0.0,30.2,50.5,1003.8,177.9,0.8,3.6,130.4,2.76,18.8,26.3
"19/06/04","16:00",0.0,30.2,48.4,1003.4,215.8,2.2,4.9,204.2,2.25,18.2,26.8
"19/06/04","17:00",0.0,29.4,48.1,1001.9,186.1,2.0,5.1,203.6,1.11,17.3,26.6
"19/06/04","18:00",0.0,27.6,59.8,1001.0,160.5,2.1,4.4,188.4,0.34,19.1,25.7
"19/06/04","19:00",0.0,25.7,64.8,1002.9,249.5,1.3,3.7,283.1,0.08,18.6,25.0
"19/06/04","20:00",0.0,24.3,68.7,1003.1,298.5,1.1,2.7,328.5,0.00,18.2,24.3
"19/06/04","21:00",0.0,23.6,73.8,1004.1,312.9,1.3,3.9,318.8,0.00,18.7,23.6
"19/06/04","22:00",0.0,23.0,76.8,1004.8,330.5,1.2,5.0,339.5,0.00,18.8,23.2
"19/06/04","23:00",0.0,22.6,80.0,1004.8,332.7,1.3,3.1,341.6,0.00,19.0,22.9
"19/06/04","24:00",0.0,22.7,79.8,1004.5,330.6,1.5,2.5,336.2,0.00,19.1,22.7
"19/06/05","01:00",0.0,22.5,80.9,1004.5,301.1,1.0,2.9,334.1,0.00,19.1,22.6
"19/06/05","02:00",0.0,22.1,82.4,1004.3,335.2,1.3,3.1,315.2,0.00,19.0,22.2
"19/06/05","03:00",0.0,21.9,83.5,1003.8,10.4,0.6,2.7,331.1,0.00,19.0,22.0
"19/06/05","04:00",0.0,21.6,84.9,1004.1,313.4,1.3,2.4,327.1,0.00,19.0,22.0
"19/06/05","05:00",0.0,21.9,83.0,1004.1,308.0,0.6,1.9,328.3,0.00,18.9,21.6
"19/06/05","06:00",0.0,21.2,86.3,1004.3,297.0,0.8,2.1,337.1,0.00,18.9,21.7
"19/06/05","07:00",0.0,21.9,85.7,1004.5,340.2,1.3,2.1,341.5,0.08,19.4,21.7
"19/06/05","08:00",0.0,22.8,81.7,1005.0,352.3,1.0,2.5,337.7,0.33,19.5,21.8
"19/06/05","09:00",0.0,24.0,74.7,1004.5,33.7,0.6,2.8,351.2,0.77,19.3,22.3
"19/06/05","10:00",0.0,24.4,71.9,1003.8,225.1,1.0,2.7,240.3,0.88,19.0,22.6
"19/06/05","11:00",0.0,25.6,67.2,1003.1,16.4,0.7,3.1,337.5,1.35,19.1,23.3
"19/06/05","12:00",0.0,27.5,61.3,1004.5,10.9,1.1,2.7,350.3,2.55,19.4,24.6
"19/06/05","13:00",0.0,28.7,55.0,1004.8,317.6,1.1,3.5,341.4,3.53,18.8,26.3
"19/06/05","14:00",0.0,28.7,54.0,1004.1,220.8,1.5,5.0,335.7,2.50,18.5,26.2
"19/06/05","15:00",0.0,30.1,50.3,1003.6,195.6,1.8,4.3,186.3,2.85,18.7,26.9
"19/06/05","16:00",0.0,29.4,53.0,1002.4,182.1,1.6,4.3,228.5,1.12,18.9,26.5
"19/06/05","17:00",0.0,29.8,53.5,1002.2,178.3,2.0,3.9,147.7,1.10,19.4,26.2
"19/06/05","18:00",0.0,29.2,54.0,1002.2,20.0,1.3,4.2,353.8,0.45,19.0,25.7
"19/06/05","19:00",0.0,27.8,59.6,1002.4,267.4,1.0,4.1,224.3,0.04,19.3,25.3
"19/06/05","20:00",0.0,26.9,62.6,1002.6,291.9,1.0,2.1,337.5,0.00,19.2,24.7
"19/06/05","21:00",0.0,25.5,66.6,1003.8,338.4,2.7,7.0,322.6,0.00,18.9,24.3
"19/06/05","22:00",0.0,24.5,68.1,1005.0,337.0,2.7,7.1,335.5,0.00,18.3,23.7
"19/06/05","23:00",0.0,23.5,69.2,1005.2,335.1,1.7,4.0,343.6,0.00,17.6,23.1
"19/06/05","24:00",0.0,21.5,74.4,1006.0,294.6,1.1,3.3,324.1,0.00,16.8,22.6
"19/06/06","01:00",0.0,19.7,79.6,1006.4,299.4,1.0,2.2,343.2,0.00,16.1,21.9
"19/06/06","02:00",0.0,19.2,83.5,1006.2,316.6,0.8,1.6,263.5,0.00,16.4,21.4
"19/06/06","03:00",0.0,18.5,85.8,1006.2,321.5,1.3,2.1,317.0,0.00,16.1,21.2
"19/06/06","04:00",0.0,18.0,87.1,1006.9,261.9,0.5,2.1,325.5,0.00,15.9,20.8
"19/06/06","05:00",0.0,17.1,89.6,1007.6,287.0,0.8,2.0,334.0,0.00,15.4,20.4
"19/06/06","06:00",0.0,18.0,89.5,1008.1,308.3,1.2,2.7,329.4,0.00,16.3,20.2
"19/06/06","07:00",0.0,20.8,81.9,1008.8,322.0,1.7,3.2,339.9,0.27,17.6,20.2
"19/06/06","08:00",0.0,23.2,70.4,1008.8,320.4,1.0,2.6,325.1,0.93,17.6,21.2
"19/06/06","09:00",0.0,25.2,59.1,1008.1,350.1,1.7,4.2,326.8,1.75,16.7,21.9
"19/06/06","10:00",0.0,26.2,55.0,1007.6,286.8,1.0,2.5,326.4,2.50,16.5,23.4
"19/06/06","11:00",0.0,27.5,53.9,1008.1,310.5,1.2,4.3,342.1,3.08,17.4,24.8
"19/06/06","12:00",0.0,28.9,48.2,1007.1,224.3,2.2,5.4,228.9,3.43,16.9,26.6
"19/06/06","13:00",0.0,30.7,44.0,1007.1,251.5,1.1,6.2,197.4,3.55,17.1,27.9
"19/06/06","14:00",0.0,30.3,42.5,1006.0,298.4,1.6,4.5,343.2,1.89,16.2,27.5
"19/06/06","15:00",0.0,29.2,39.2,1005.0,260.2,1.3,4.2,254.9,1.06,14.0,26.9
"19/06/06","16:00",0.0,30.9,39.1,1005.0,290.3,1.3,4.7,326.2,1.44,15.4,26.5
"19/06/06","17:00",0.0,30.7,38.8,1005.0,282.7,1.1,3.2,236.7,1.32,15.1,26.7
"19/06/06","18:00",0.0,30.1,41.0,1004.8,257.8,1.1,3.7,339.1,0.45,15.4,26.2
"19/06/06","19:00",0.0,26.9,52.1,1003.8,330.5,1.1,2.6,331.9,0.06,16.3,25.3
"19/06/06","20:00",0.0,24.5,57.5,1004.3,276.9,0.6,3.2,338.5,0.00,15.6,24.4
"19/06/06","21:00",0.0,24.0,58.3,1005.0,305.4,2.2,4.1,333.3,0.00,15.4,23.8
"19/06/06","22:00",0.0,22.4,64.9,1005.7,320.7,0.6,2.8,330.5,0.00,15.5,23.2
"19/06/06","23:00",0.0,21.5,67.2,1005.2,304.2,1.3,2.6,312.4,0.00,15.2,22.6
"19/06/06","24:00",0.0,20.8,70.3,1005.2,307.3,1.0,2.0,307.7,0.00,15.2,22.3
"19/06/07","01:00",0.0,20.2,74.8,1005.0,310.9,1.0,1.6,335.9,0.00,15.6,22.0
"19/06/07","02:00",0.0,20.6,74.6,1004.1,341.0,1.1,2.0,318.1,0.00,16.0,21.7
"19/06/07","03:00",0.0,20.4,74.3,1003.4,297.9,0.8,2.2,321.0,0.00,15.7,21.3
"19/06/07","04:00",0.0,20.5,74.9,1002.9,314.2,1.0,1.9,312.6,0.00,15.9,21.4
"19/06/07","05:00",0.0,20.2,77.4,1002.9,304.8,1.1,1.8,321.9,0.00,16.2,21.2
"19/06/07","06:00",0.0,20.7,79.1,1002.6,330.7,1.0,2.2,337.5,0.00,17.0,21.2
"19/06/07","07:00",0.4,20.7,82.1,1002.4,330.1,1.3,3.9,338.7,0.02,17.6,21.3
"19/06/07","08:00",3.0,19.6,89.0,1003.6,327.3,1.5,3.4,321.0,0.00,17.8,21.2
"19/06/07","09:00",4.6,18.9,91.4,1003.1,308.1,0.7,1.7,269.4,0.00,17.5,21.0
"19/06/07","10:00",10.2,18.9,93.0,1002.4,178.1,0.5,2.2,191.6,0.00,17.8,20.6
"19/06/07","11:00",3.6,18.2,93.4,1001.0,322.7,1.2,3.3,27.7,0.05,17.2,20.7
"19/06/07","12:00",2.4,18.6,93.9,1000.5,264.7,0.8,2.7,328.4,0.03,17.6,20.4
"19/06/07","13:00",0.8,19.3,93.8,999.6,266.5,0.8,2.0,237.1,0.17,18.3,20.6
"19/06/07","14:00",0.4,19.8,93.5,998.9,332.3,0.7,2.0,45.2,0.25,18.8,20.6
"19/06/07","15:00",0.4,20.0,93.7,997.9,326.1,0.8,1.8,343.9,0.19,19.0,20.8
"19/06/07","16:00",0.0,20.2,93.5,996.7,120.2,0.2,2.0,332.5,0.22,19.2,21.2
"19/06/07","17:00",0.0,20.7,93.3,996.3,313.8,0.6,2.1,349.3,0.25,19.6,21.0
"19/06/07","18:00",0.0,20.5,92.8,996.0,315.2,1.0,1.9,236.1,0.10,19.3,21.3
"19/06/07","19:00",0.0,20.5,93.0,995.6,317.3,1.1,2.6,335.1,0.00,19.4,21.3
"19/06/07","20:00",0.0,20.5,93.8,995.3,331.6,1.1,2.1,313.1,0.00,19.5,21.2
"19/06/07","21:00",0.0,20.3,94.3,995.1,300.2,1.0,2.5,327.0,0.00,19.4,21.1
"19/06/07","22:00",0.0,20.3,94.8,995.3,312.2,1.0,1.7,335.0,0.00,19.5,20.8
"19/06/07","23:00",0.0,20.2,95.2,995.1,303.6,1.1,1.9,315.4,0.00,19.4,21.0
"19/06/07","24:00",0.0,20.1,95.4,995.1,273.0,0.6,1.6,319.4,0.00,19.4,20.9
"19/06/08","01:00",0.0,19.9,95.7,994.8,307.7,0.5,2.0,334.0,0.00,19.2,20.9
"19/06/08","02:00",0.0,20.1,96.2,994.8,347.7,1.0,1.9,327.4,0.00,19.5,20.9
"19/06/08","03:00",0.0,20.1,96.3,994.8,331.4,1.2,2.7,338.0,0.00,19.5,20.7
"19/06/08","04:00",0.0,20.0,96.3,994.6,283.8,1.0,2.1,309.8,0.00,19.4,20.7
"19/06/08","05:00",0.0,20.2,93.7,995.1,265.2,1.5,3.6,228.4,0.00,19.2,20.7
"19/06/08","06:00",0.0,20.9,88.8,995.3,260.0,1.8,3.6,234.7,0.00,19.0,20.4
"19/06/08","07:00",0.0,21.4,84.5,995.6,306.0,1.6,4.3,234.1,0.12,18.7,20.7
"19/06/08","08:00",0.0,21.8,82.7,996.0,298.2,1.7,4.3,349.9,0.38,18.8,20.7
"19/06/08","09:00",0.0,22.4,79.9,995.6,280.0,1.2,5.0,320.8,0.79,18.8,21.3
"19/06/08","10:00",0.0,21.7,85.6,996.3,327.3,1.8,4.5,325.9,0.64,19.2,21.5
"19/06/08","11:00",0.0,21.9,86.0,996.7,313.5,1.8,4.0,342.0,1.12,19.5,22.0
"19/06/08","12:00",0.4,22.6,78.1,996.5,342.4,3.1,6.5,329.9,1.13,18.6,22.3
"19/06/08","13:00",0.0,22.7,74.3,997.2,344.1,2.6,8.3,342.1,1.08,17.9,22.3
"19/06/08","14:00",0.0,22.2,76.3,997.9,344.0,2.2,7.4,338.2,0.85,17.9,22.4
"19/06/08","15:00",0.0,21.2,76.6,997.9,348.9,2.2,7.1,355.2,1.23,17.0,22.5
"19/06/08","16:00",0.0,20.9,76.5,999.3,325.3,2.0,8.5,9.8,0.71,16.7,22.6
"19/06/08","17:00",0.0,20.6,76.9,1000.0,330.8,1.6,6.3,328.7,0.34,16.4,22.2
"19/06/08","18:00",0.0,19.9,77.3,1000.0,340.4,2.6,6.2,337.0,0.22,15.9,21.9
"19/06/08","19:00",0.0,19.6,77.4,1000.0,334.8,2.0,7.2,333.8,0.10,15.6,21.6
"19/06/08","20:00",0.0,18.9,79.4,1001.0,282.1,0.6,5.6,341.9,0.00,15.3,21.3
"19/06/08","21:00",0.0,19.0,77.9,1001.9,331.6,1.5,3.1,308.2,0.00,15.1,21.2
"19/06/08","22:00",0.0,18.6,80.5,1001.5,307.5,1.1,3.5,337.1,0.00,15.2,20.8
"19/06/08","23:00",0.0,18.4,81.8,1001.5,320.4,1.7,3.1,324.3,0.00,15.3,20.6
"19/06/08","24:00",0.0,17.9,84.0,1001.7,289.2,1.3,5.2,338.0,0.00,15.2,20.7
"19/06/09","01:00",0.0,17.8,84.0,1001.5,317.4,2.0,4.4,321.8,0.00,15.1,20.5
"19/06/09","02:00",0.0,17.6,83.7,1001.2,325.2,2.6,5.1,335.4,0.00,14.9,20.2
"19/06/09","03:00",0.0,17.4,83.6,1000.5,309.9,1.8,4.3,324.1,0.00,14.6,20.0
"19/06/09","04:00",0.0,16.9,85.6,1001.2,327.6,2.3,4.1,333.0,0.00,14.5,19.7
"19/06/09","05:00",0.0,16.0,88.2,1001.7,294.8,1.0,3.5,328.5,0.00,14.1,19.7
"19/06/09","06:00",0.0,15.7,90.4,1000.8,328.6,1.2,2.2,337.2,0.00,14.2,19.4
"19/06/09","07:00",0.0,17.3,88.0,1001.7,314.5,1.3,3.1,335.2,0.16,15.3,19.3
"19/06/09","08:00",0.0,20.2,75.1,1001.0,349.9,1.5,4.7,344.3,0.71,15.7,19.7
"19/06/09","09:00",0.0,20.8,73.7,1000.8,6.4,1.5,3.6,342.8,1.12,16.0,20.3
"19/06/09","10:00",0.0,21.4,69.2,1000.5,338.6,0.8,4.0,339.8,1.42,15.6,20.9
"19/06/09","11:00",0.0,23.0,66.8,998.9,275.3,0.8,3.1,203.3,1.90,16.5,21.6
"19/06/09","12:00",0.0,23.6,64.1,998.2,146.3,0.8,2.9,136.5,1.66,16.5,22.3
"19/06/09","13:00",0.0,24.8,62.1,998.6,132.3,1.5,3.3,145.1,3.39,17.1,23.7
"19/06/09","14:00",0.0,24.9,65.4,997.2,117.6,1.3,4.1,125.0,2.13,18.0,24.0
"19/06/09","15:00",0.0,24.5,66.1,997.0,128.2,1.1,5.0,148.0,1.41,17.8,23.7
"19/06/09","16:00",0.0,23.2,69.0,997.4,34.0,1.7,5.0,342.0,0.51,17.2,23.3
"19/06/09","17:00",0.0,23.0,70.1,997.2,71.4,1.2,3.9,36.6,0.11,17.3,23.0
"19/06/09","18:00",0.0,22.5,72.1,997.4,72.9,1.0,3.3,60.6,0.17,17.3,22.4
"19/06/09","19:00",0.0,22.3,73.5,997.7,6.9,1.0,2.6,16.1,0.02,17.4,22.2
"19/06/09","20:00",0.0,21.9,74.2,998.4,41.8,0.8,2.9,49.2,0.00,17.1,22.0
"19/06/09","21:00",0.0,21.3,76.7,998.4,46.7,0.7,2.4,35.8,0.00,17.1,21.7
"19/06/09","22:00",0.0,21.0,77.3,999.1,59.9,0.7,2.0,0.2,0.00,16.9,21.6
"19/06/09","23:00",0.0,20.9,77.7,998.6,342.6,1.0,2.0,84.5,0.00,16.9,21.3
"19/06/09","24:00",0.0,20.8,77.5,998.4,11.8,0.8,2.2,325.4,0.00,16.8,21.2
"19/06/10","01:00",0.0,20.5,78.6,998.2,324.9,0.8,2.0,323.4,0.00,16.7,21.0
"19/06/10","02:00",0.0,20.3,80.8,998.2,323.9,0.7,1.8,345.0,0.00,16.9,20.9
"19/06/10","03:00",0.0,19.7,84.3,997.9,310.8,1.1,2.1,346.4,0.00,17.0,20.9
"19/06/10","04:00",0.0,19.6,85.9,997.4,329.1,1.0,2.0,321.1,0.00,17.2,20.8
"19/06/10","05:00",0.0,19.2,87.5,997.9,293.7,0.8,1.6,324.0,0.00,17.1,20.7
"19/06/10","06:00",0.0,19.2,88.5,997.9,300.5,0.8,1.9,320.5,0.00,17.3,20.7
"19/06/10","07:00",0.0,19.7,89.0,997.7,304.0,0.8,2.0,312.6,0.03,17.9,20.7
"19/06/10","08:00",0.0,20.0,87.2,998.2,308.7,0.3,2.1,335.4,0.12,17.8,20.7
"19/06/10","09:00",0.0,20.6,85.4,998.2,319.1,1.3,2.4,326.3,0.29,18.1,20.9
"19/06/10","10:00",0.4,20.5,86.7,997.9,327.2,1.0,1.9,326.0,0.39,18.2,21.0
"19/06/10","11:00",0.2,20.9,86.3,997.9,306.9,0.2,1.9,339.4,0.67,18.6,21.2
"19/06/10","12:00",0.0,21.3,84.1,997.7,308.8,0.6,1.9,331.1,0.70,18.5,21.4
"19/06/10","13:00",0.0,23.1,78.4,997.0,327.9,0.8,2.4,229.9,1.45,19.2,22.0
"19/06/10","14:00",0.0,24.6,73.1,995.6,354.1,0.7,2.5,351.1,2.04,19.5,22.5
"19/06/10","15:00",0.2,22.5,76.6,996.3,354.8,2.6,6.6,345.3,0.76,18.2,22.8
"19/06/10","16:00",0.0,22.4,80.0,996.3,112.5,0.8,4.3,18.3,0.56,18.8,22.6
"19/06/10","17:00",0.0,22.3,78.1,996.5,140.8,0.6,2.8,125.9,0.36,18.3,22.4
"19/06/10","18:00",0.0,24.0,73.4,996.3,107.7,0.5,1.9,160.7,0.56,19.0,22.4
"19/06/10","19:00",0.0,22.3,72.1,996.7,316.7,2.0,3.6,320.3,0.17,17.1,22.6
"19/06/10","20:00",0.0,20.3,79.9,997.4,333.2,1.6,4.1,352.1,0.00,16.8,22.0
"19/06/10","21:00",0.0,19.0,83.7,997.9,323.0,1.2,2.9,356.7,0.00,16.2,21.5
"19/06/10","22:00",0.0,18.3,87.8,998.4,292.2,0.8,1.7,326.5,0.00,16.3,20.8
"19/06/10","23:00",0.0,18.4,88.2,998.9,292.9,0.8,2.0,325.6,0.00,16.5,20.7
"19/06/10","24:00",0.0,17.6,90.0,999.3,314.0,1.3,2.0,326.8,0.00,16.0,20.4
"19/06/11","01:00",0.0,18.5,89.8,999.3,329.0,1.5,4.1,337.2,0.00,16.8,20.3
"19/06/11","02:00",0.0,18.4,87.5,999.8,306.3,1.6,3.4,342.8,0.00,16.3,20.2
"19/06/11","03:00",0.0,17.4,89.5,999.6,314.9,1.6,2.7,318.7,0.00,15.7,19.9
"19/06/11","04:00",0.0,17.2,90.7,999.8,330.4,1.8,3.4,316.4,0.00,15.7,19.7
"19/06/11","05:00",0.0,17.2,90.6,1000.0,331.5,1.2,3.2,312.7,0.00,15.7,19.6
"19/06/11","06:00",0.0,17.4,90.3,1000.8,325.7,2.3,3.7,337.1,0.00,15.8,19.7
"19/06/11","07:00",0.0,18.8,87.3,1000.8,328.8,1.8,3.7,326.3,0.24,16.7,19.7
"19/06/11","08:00",0.0,19.8,83.8,1000.8,334.5,1.7,3.7,326.8,0.41,17.0,19.9
"19/06/11","09:00",0.0,21.6,74.6,1000.0,212.1,0.6,2.5,339.3,1.21,16.9,20.5
"19/06/11","10:00",0.0,22.1,71.7,999.8,251.3,0.3,3.6,210.4,1.09,16.8,21.1
"19/06/11","11:00",0.0,23.6,70.6,999.1,317.8,0.8,2.5,345.7,1.61,18.0,21.8
"19/06/11","12:00",0.0,23.4,69.8,998.6,300.5,1.2,3.5,355.0,1.20,17.6,22.0
"19/06/11","13:00",0.0,25.9,60.0,998.6,231.4,1.2,3.3,351.7,3.37,17.6,23.5
"19/06/11","14:00",0.0,26.9,53.4,998.2,2.8,1.5,3.3,343.6,2.85,16.7,24.1
"19/06/11","15:00",0.0,25.0,59.6,996.3,217.8,1.5,4.1,203.9,1.28,16.6,24.2
"19/06/11","16:00",0.6,21.7,81.5,997.0,323.2,1.7,4.1,343.7,0.45,18.4,23.7
"19/06/11","17:00",0.0,23.3,79.5,996.7,299.1,1.5,3.5,337.2,1.35,19.6,23.7
"19/06/11","18:00",1.8,21.2,86.3,997.4,328.8,1.8,5.5,330.5,0.49,18.9,23.5
"19/06/11","19:00",0.0,19.8,84.9,998.9,321.0,2.5,5.8,334.8,0.06,17.2,22.8
"19/06/11","20:00",0.0,19.9,82.8,999.8,334.6,1.5,4.9,340.3,0.00,16.9,22.3
"19/06/11","21:00",0.0,19.0,87.1,1000.5,328.1,1.1,3.1,342.7,0.00,16.8,21.7
"19/06/11","22:00",0.0,18.9,86.2,1001.5,336.7,2.1,4.2,334.9,0.00,16.6,21.3
"19/06/11","23:00",0.0,18.7,85.8,1001.2,276.6,0.8,3.2,350.0,0.00,16.3,21.2
"19/06/11","24:00",0.0,18.0,88.2,1001.0,313.6,1.2,2.0,304.4,0.00,16.1,20.7
"19/06/12","01:00",0.0,17.9,89.2,1000.8,324.4,2.1,3.9,337.6,0.00,16.1,20.6
"19/06/12","02:00",0.0,17.7,90.3,1000.8,324.7,1.8,3.7,339.6,0.00,16.1,20.4
"19/06/12","03:00",0.0,17.8,89.9,1001.2,328.6,1.8,3.4,314.7,0.00,16.2,20.4
"19/06/12","04:00",0.0,17.5,89.9,1001.2,311.5,1.7,3.3,324.5,0.00,15.9,20.3
"19/06/12","05:00",0.0,17.4,91.1,1001.5,331.4,1.7,3.2,318.2,0.00,16.0,20.1
"19/06/12","06:00",0.0,17.8,90.3,1001.9,320.9,1.8,4.4,328.4,0.00,16.2,20.0
"19/06/12","07:00",0.0,18.4,88.7,1002.2,289.0,1.0,2.8,332.9,0.17,16.5,20.0
"19/06/12","08:00",0.0,20.6,83.1,1002.6,325.9,1.3,3.2,334.9,0.60,17.7,20.3
"19/06/12","09:00",0.0,22.2,71.9,1001.5,179.1,0.8,2.9,338.6,1.75,16.9,20.9
"19/06/12","10:00",0.0,23.8,65.6,1001.2,77.5,1.1,2.8,42.0,2.74,17.0,21.9
"19/06/12","11:00",0.0,22.7,66.5,1000.5,329.2,1.3,3.4,310.2,1.32,16.2,22.5
"19/06/12","12:00",0.0,23.6,63.3,1000.3,353.4,1.5,4.0,0.1,1.45,16.3,22.9
"19/06/12","13:00",0.0,24.5,56.8,1000.0,21.9,1.6,4.5,353.3,2.42,15.4,23.6
"19/06/12","14:00",0.0,25.6,55.1,999.3,347.1,1.5,3.6,342.2,1.25,16.0,23.7
"19/06/12","15:00",0.0,26.0,57.9,999.1,343.0,2.0,5.8,342.6,2.25,17.1,24.4
"19/06/12","16:00",0.0,24.4,62.5,999.6,346.9,3.0,7.5,338.1,2.27,16.8,24.7
"19/06/12","17:00",0.0,24.6,60.8,1000.5,339.0,3.1,6.8,327.5,1.49,16.6,24.6
"19/06/12","18:00",0.0,23.6,61.3,1000.5,341.6,2.7,7.0,29.6,0.31,15.8,24.3
"19/06/12","19:00",0.0,21.7,65.4,1001.5,328.9,2.2,7.7,319.8,0.05,15.0,23.6
"19/06/12","20:00",0.0,20.2,71.7,1002.2,320.9,1.8,4.9,335.2,0.00,15.0,22.8
"19/06/12","21:00",0.0,19.1,76.9,1004.1,315.2,1.0,5.6,332.4,0.00,15.0,22.1
"19/06/12","22:00",0.0,18.3,80.4,1004.8,292.4,1.1,4.3,336.5,0.00,14.9,21.7
"19/06/12","23:00",0.0,16.7,86.6,1004.8,258.0,0.3,2.4,327.7,0.00,14.5,21.0
"19/06/12","24:00",0.0,16.4,89.1,1005.0,303.5,0.8,2.1,331.3,0.00,14.6,20.6
"19/06/13","01:00",0.0,16.4,90.7,1005.5,332.5,1.2,1.9,345.6,0.00,14.9,20.4
"19/06/13","02:00",0.0,16.3,91.5,1005.5,342.0,1.3,2.2,321.7,0.00,15.0,19.9
"19/06/13","03:00",0.0,15.8,92.6,1005.2,316.1,1.5,2.5,340.1,0.00,14.6,19.6
"19/06/13","04:00",0.0,16.0,93.1,1005.2,333.8,1.3,3.3,324.6,0.00,14.9,19.5
"19/06/13","05:00",0.0,15.9,93.1,1006.0,328.3,2.0,3.5,336.0,0.00,14.8,19.3
"19/06/13","06:00",0.0,16.0,93.5,1006.2,335.0,1.5,3.7,324.9,0.00,15.0,19.2
"19/06/13","07:00",0.0,18.7,89.5,1007.6,331.4,2.5,4.2,329.5,0.25,17.0,19.3
"19/06/13","08:00",0.0,21.0,75.8,1006.7,93.1,0.5,2.8,330.2,0.99,16.6,19.9
"19/06/13","09:00",0.0,22.5,68.5,1006.4,163.8,1.5,3.4,201.0,1.85,16.5,20.7
"19/06/13","10:00",0.0,23.9,66.6,1005.5,194.8,1.8,4.2,205.4,2.39,17.3,21.5
"19/06/13","11:00",0.0,25.2,58.6,1006.2,46.7,1.0,3.9,194.8,3.19,16.6,22.9
"19/06/13","12:00",0.0,26.8,52.9,1006.0,210.9,1.5,6.6,188.8,3.64,16.4,24.4
"19/06/13","13:00",0.0,27.3,50.4,1005.0,340.8,1.0,4.4,134.4,3.73,16.1,25.8
"19/06/13","14:00",0.0,28.1,46.5,1005.2,218.2,1.1,4.3,213.0,3.57,15.6,25.6
"19/06/13","15:00",0.0,29.3,41.7,1004.1,170.2,1.1,3.7,136.6,3.18,15.0,26.1
"19/06/13","16:00",0.0,29.8,38.9,1003.8,173.8,1.5,3.2,163.5,2.59,14.4,26.4
"19/06/13","17:00",0.0,29.7,45.6,1003.6,172.9,1.0,4.4,221.4,1.99,16.8,26.6
"19/06/13","18:00",0.0,28.1,49.9,1002.6,83.8,1.2,4.5,226.2,0.43,16.7,26.2
"19/06/13","19:00",0.0,26.4,57.5,1003.1,160.2,2.0,4.5,164.4,0.06,17.4,25.0
"19/06/13","20:00",0.0,25.5,62.9,1004.3,141.3,1.7,4.7,139.6,0.00,18.0,24.5
"19/06/13","21:00",0.0,24.4,59.5,1005.0,181.3,1.0,3.2,210.3,0.00,16.0,23.7
"19/06/13","22:00",0.0,23.3,63.3,1005.7,183.6,0.3,2.4,215.2,0.00,16.0,23.4
"19/06/13","23:00",0.0,21.3,74.7,1006.0,300.2,0.7,1.2,195.9,0.00,16.7,22.9
"19/06/13","24:00",0.0,20.6,81.1,1006.7,302.2,1.1,2.2,326.4,0.00,17.3,22.2
"19/06/14","01:00",0.0,20.3,83.8,1006.7,309.8,0.3,1.7,307.2,0.00,17.5,22.0
"19/06/14","02:00",0.0,20.5,83.4,1006.2,304.9,1.1,1.6,323.3,0.00,17.6,21.8
"19/06/14","03:00",0.0,19.6,86.3,1006.9,316.4,1.0,1.8,320.0,0.00,17.3,21.7
"19/06/14","04:00",0.0,19.4,88.0,1006.2,295.6,0.8,1.6,324.0,0.00,17.4,21.2